Regional Weather Roundup
Issued by NWS

Home | Current Version | Previous Version | Graphics & Text | Print | Product List | Glossary On
Versions: 1 2 3 4 5 6 7 8 9 10 11 12 13 14 15 16 17 18 19 20 21 22 23 24 25 26 27 28 29 30 31 32 33 34 35 36 37 38 39 40 41 42 43 44 45 46 47 48 49 50
000
ASUS43 KLSX 121057
RWRMO

WEATHER SUMMARY FOR MISSOURI
NATIONAL WEATHER SERVICE SPRINGFIELD MO
500 AM CST TUE DEC 12 2017

NOTE: "FAIR" INDICATES FEW OR NO CLOUDS BELOW 12,000 FEET WITH NO
       SIGNIFICANT WEATHER AND/OR OBSTRUCTIONS TO VISIBILITY.
       CURRENT SKY AND/OR WEATHER CONDITIONS ARE NOT AVAILABLE FOR
       CHILLICOTHE AND FARMINGTON.

MOZ001>031-035>038-043-044-053-054-121200-
...NORTHERN AND WESTERN MISSOURI...

CITY           SKY/WX    TMP DP  RH WIND       PRES   REMARKS
KANSAS CTY INT CLEAR     23  15  71 N14       30.32S WCI  11
LEE`S SUMMIT   CLEAR     25  16  68 N15       30.31S WCI  13
ST JOSEPH      CLEAR     20  15  81 N10       30.36S WCI   9
CHILLICOTHE      N/A     20  13  74 NW7       30.32R WCI  11

$$
MOZ066>068-077>081-088>096-101>105-121200-
...SOUTHWEST MISSOURI...

CITY           SKY/WX    TMP DP  RH WIND       PRES   REMARKS
SPRINGFIELD    PTCLDY    27  23  85 NW10      30.24R WCI  17
JOPLIN         CLEAR     29  22  75 NW8       30.32S WCI  21

$$
MOZ032>034-039>042-045>050-055>058-069>072-121200-
...CENTRAL MISSOURI...

CITY           SKY/WX    TMP DP  RH WIND       PRES   REMARKS
COLUMBIA       NOT AVBL
JEFFERSON CITY CLOUDY    29  19  66 NW13G22   30.26R WCI  19
ROLLA          MOCLDY    29  21  72 NW15      30.20R WCI  18
SEDALIA        CLEAR     24  19  81 NW13      30.30R WCI  12
WARRENSBURG    CLEAR     27  19  74 NW14G20   30.31R WCI  15

$$
MOZ051-052-059>065-121200-
...EAST CENTRAL MISSOURI...

CITY           SKY/WX    TMP DP  RH WIND       PRES   REMARKS
ST LOUIS INTL  MOCLDY    33  20  58 NW21G31   30.15R WCI  21

$$
MOZ072>076-082>087-097>100-106>115-121200-
...SOUTH CENTRAL AND SOUTHEAST MISSOURI...

CITY           SKY/WX    TMP DP  RH WIND       PRES   REMARKS
CAPE GIRARDEAU CLOUDY    41  29  62 NW16G25   30.09R
POPLAR BLUFF   CLOUDY    44  27  51 NW16G30   30.10R
WEST PLAINS    FLURRIES  33  22  63 NW13G24   30.18R WCI  24

$$



USA.gov is the U.S. government's official web portal to all federal, state and local government web resources and services.